Location: Regona
(45.2000°N, 9.8167°E)
Time: 17:42:45
(UTC+00:00)

USA 81 - Pass Details

Date: 07 June 2020
Orbit: 786 x 787 km, 85.0° (Epoch: 01 July)

Event Time Altitude Azimuth Distance (km) Brightness Sun altitude
Exits shadow 00:30:17 38° 221° (SW) 1,178 4.5 -20.1°
Maximum altitude 00:32:02 57° 278° (W) 925 4.3 -20.0°
Drops below altitude 10° 00:37:15 10° 358° (N) 2,358 7.5 -19.8°
Sets 00:39:40 0° 2° (N) 3,291 8.6 -19.6°
